{"data":{"norad_id":62920,"intl_designator":"2025-027P","name":"STARLINK-32921","alt_names":[],"object_type":"PAYLOAD","status":"ACTIVE","operator":null,"country":"US","launch_date":"2025-02-08","launch_site_code":"AFETR","launch_vehicle":null,"mission":null,"orbit_class":"UNKNOWN","rcs_meters":null,"size_class":null,"mass_kg":null,"dimensions":null,"purposes":["comms"],"wikipedia_slug":null,"has_3d_model":false,"image_url":null,"decayed_at":null,"tle_current":{"epoch":"2026-09-21T22:01:23.968992Z","epoch_age_seconds":45799,"freshness":"FRESH","line1":"1 62920U 25027P   26264.91763853  .00040820  00000+0  13181-2 0  9996","line2":"2 62920  43.0021  99.7476 0005659 260.4255  99.5959 15.31433391 91562","mean_motion":15.31433391,"eccentricity":0.0005659,"inclination_deg":43.0021,"raan_deg":99.7476,"arg_perigee_deg":260.4255,"mean_anomaly_deg":99.5959,"bstar":0.0013181,"rev_number":9156,"period_min":94.029554825085,"perigee_km":467.65862877349,"apogee_km":475.41108738246,"semimajor_km":6849.671858078,"source":"CELESTRAK","updated_at":"2026-09-22T09:00:49.709126Z"}}}